Location: Moy Burn
(57.3833°N, 4.0667°W)
Time: 09:39:08
(UTC+00:00)

Cosmos 614 Rocket - Pass Details

Date: 08 August 2020
Orbit: 732 x 764 km, 74.1° (Epoch: 18 September)

Event Time Altitude Azimuth Distance (km) Brightness Sun altitude
Rises 21:17:38 0° 203° (SSW) 3,189 7.0 -7.5°
Reaches altitude 10° 21:19:59 10° 202° (SSW) 2,273 6.2 -7.7°
Maximum altitude 21:25:08 79° 117° (ESE) 779 4.0 -8.2°
Drops below altitude 10° 21:30:22 10° 31° (NNE) 2,307 6.7 -8.7°
Sets 21:32:45 0° 31° (NNE) 3,239 7.5 -8.9°
